Location: Cabeza de los Veneras
(40.2000°N, 5.2000°W)
Time: 06:32:15
(UTC+00:00)

Sich 1 Rocket - Visible Passes

Search period start: 13 July 2024 00:00
Search period end: 23 July 2024 00:00
Orbit: 613 x 650 km, 82.5° (Epoch: 12 July)

Date Brightness Start Highest point End Pass type
(mag) Time Alt. Az. Time Alt. Az. Time Alt. Az.
13 Jul 3.9 20:28:52 10° N 20:33:12 50° E 20:37:32 10° SSE visible
13 Jul 6.3 22:08:43 10° NW 22:10:49 13° W 22:12:57 10° WSW visible
14 Jul 3.7 20:49:58 10° N 20:54:25 77° W 20:58:52 10° S visible
15 Jul 5.1 21:11:27 10° NNW 21:15:30 36° W 21:19:35 10° SSW visible
16 Jul 6.2 21:33:29 10° NW 21:36:29 18° W 21:39:29 10° SW visible
17 Jul 3.6 20:15:28 10° N 20:19:57 79° E 20:24:26 10° S visible
18 Jul 4.6 20:36:47 10° NNW 20:41:05 48° W 20:45:25 10° SSW visible
19 Jul 5.9 20:58:32 10° NW 21:02:06 24° W 21:05:40 10° SW visible
20 Jul 6.6 21:21:26 10° WNW 21:22:59 12° W 21:24:34 10° WSW visible
22 Jul 5.5 20:23:44 10° NNW 20:27:42 31° W 20:31:41 10° SSW visible
